Satellite-Ground Cal/Val Site Overpasses Predictions

Prediction of Satellite NPP Overpassing Cal/Val Site: Antarctic Dome C

Ground Cal/Val Site Location: Latitude: -75.10, Longitude: 123.35; Satellite-Ground Site NADIR distance within 100 km.

Table of predicted overpasses for the next 14.0 days since TLE Epoch: 6/21/2019
Interval Starting Time Ending Time Minimum Distance Time Minimum Distance (km)
1 06/22/2019 15:07:49 06/22/2019 15:07:54 06/22/2019 15:07:52 97.88
2 06/23/2019 14:48:48 06/23/2019 14:49:17 06/23/2019 14:49:03 13.74
3 06/25/2019 07:31:38 06/25/2019 07:32:07 06/25/2019 07:31:53 2.92
4 06/28/2019 14:55:07 06/28/2019 14:55:35 06/28/2019 14:55:21 23.10
5 06/29/2019 14:36:24 06/29/2019 14:36:39 06/29/2019 14:36:32 83.92
6 06/30/2019 07:37:57 06/30/2019 07:38:25 06/30/2019 07:38:11 36.08
7 07/01/2019 07:19:11 07/01/2019 07:19:31 07/01/2019 07:19:21 73.85
8 07/03/2019 15:01:27 07/03/2019 15:01:50 07/03/2019 15:01:39 60.35
9 07/04/2019 14:42:37 07/04/2019 14:43:02 07/04/2019 14:42:50 48.93


NCC Satellite Cal/Val Overpasses Prediction Service
